W2OBX Weather Reports


time (UTC)temp
C
wind
direction
speed
KPH
gust
KPH
rain 1hr
cm
rain 24hr
cm
rain mn
cm
humidity
%
barometer
mb
20260503185209 16 116 0.0 8.0 0.00 0.00 0.00 42 1019.9
20260503184703 17 148 4.8 4.8 0.00 0.00 0.00 43 1020.0
20260503184200 17 108 0.0 1.6 0.00 0.00 0.00 41 1020.0
20260503183656 17 126 1.6 4.8 0.00 0.00 0.00 39 1020.0
20260503183154 17 128 1.6 4.8 0.00 0.00 0.00 37 1020.4
20260503182652 17 94 3.2 3.2 0.00 0.00 0.00 38 1020.2
20260503182150 16 145 4.8 8.0 0.00 0.00 0.00 39 1020.2
20260503181646 17 134 3.2 4.8 0.00 0.00 0.00 39 1020.3
20260503181144 17 127 3.2 4.8 0.00 0.00 0.00 39 1020.3
20260503180640 17 121 0.0 3.2 0.00 0.00 0.00 37 1020.4
20260503180138 16 116 0.0 1.6 0.00 0.00 0.00 45 1020.5
20260503175635 16 167 0.0 4.8 0.00 0.00 0.00 40 1020.4
20260503175132 16 127 4.8 8.0 0.00 0.00 0.00 43 1020.7
20260503174629 17 152 4.8 4.8 0.00 0.00 0.00 41 1020.6
20260503174126 16 104 1.6 4.8 0.00 0.00 0.00 40 1020.6
20260503173621 16 110 0.0 1.6 0.00 0.00 0.00 47 1020.8
20260503173117 16 123 1.6 3.2 0.00 0.00 0.00 39 1020.8
20260503172615 16 137 3.2 4.8 0.00 0.00 0.00 46 1020.9
20260503172112 15 120 1.6 4.8 0.00 0.00 0.00 43 1021.1
20260503171609 15 111 0.0 1.6 0.00 0.00 0.00 40 1021.0
20260503171106 15 95 1.6 3.2 0.00 0.00 0.00 39 1021.0
20260503170603 15 116 1.6 3.2 0.00 0.00 0.00 43 1021.2
20260503150954 11 134 3.2 4.8 0.00 0.00 0.00 48 1022.3
20260503150451 12 158 4.8 8.0 0.00 0.00 0.00 50 1022.1
20260503131338 8 123 1.6 3.2 0.00 0.00 0.00 70 1022.0
20260503130836 8 119 0.0 1.6 0.00 0.00 0.00 78 1022.2
20260503130333 8 124 1.6 3.2 0.00 0.00 0.00 77 1022.1
20260503110727 4 87 0.0 0.0 0.00 0.00 0.00 92 1020.7
20260503110224 4 88 0.0 0.0 0.00 0.00 0.00 92 1020.7
20260503100150 5 88 0.0 0.0 0.00 0.00 0.00 89 1020.1
20260503090109 6 89 0.0 0.0 0.00 0.00 0.00 85 1019.9
20260503081545 7 90 0.0 0.0 0.00 0.00 0.00 83 1019.5
20260503081042 7 90 0.0 0.0 0.00 0.00 0.00 83 1019.1
20260503080538 7 90 0.0 0.0 0.00 0.00 0.00 83 1019.1
20260503072512 8 90 0.0 0.0 0.00 0.00 0.00 80 1019.0
20260503072009 8 90 0.0 0.0 0.00 0.00 0.00 80 1018.8
20260503071506 8 90 0.0 0.0 0.00 0.00 0.00 78 1018.8
20260503071003 8 90 0.0 0.0 0.00 0.00 0.00 77 1018.7
20260503070459 8 90 0.0 0.0 0.00 0.00 0.00 75 1018.8
20260503054923 9 92 0.0 0.0 0.00 0.00 0.00 72 1018.4
20260503054419 9 92 0.0 0.0 0.00 0.00 0.00 72 1018.4
20260503053917 9 92 0.0 0.0 0.00 0.00 0.00 72 1018.6
20260503053415 9 92 0.0 0.0 0.00 0.00 0.00 73 1018.4
20260503052911 8 92 0.0 0.0 0.00 0.00 0.00 73 1018.5
20260503052409 8 92 0.0 0.0 0.00 0.00 0.00 74 1018.4
20260503051905 8 92 0.0 0.0 0.00 0.00 0.00 75 1018.6
20260503051401 8 92 0.0 0.0 0.00 0.00 0.00 74 1018.5
20260503050858 8 92 0.0 0.0 0.00 0.00 0.00 76 1018.4
20260503050354 8 92 0.0 0.0 0.00 0.00 0.00 76 1018.4
20260503045852 8 92 0.0 0.0 0.00 0.00 0.00 77 1018.2
20260503045349 8 92 0.0 0.0 0.00 0.00 0.00 77 1018.4
20260503044845 8 92 0.0 0.0 0.00 0.00 0.00 77 1018.3
20260503044343 8 92 0.0 0.0 0.00 0.00 0.00 75 1018.2
20260503043839 8 92 0.0 1.6 0.00 0.00 0.00 76 1018.3
20260503043336 8 92 0.0 0.0 0.00 0.00 0.00 74 1018.3
20260503042832 8 92 0.0 0.0 0.00 0.00 0.00 74 1018.1
20260503042330 8 92 0.0 0.0 0.00 0.00 0.00 74 1018.1
20260503041825 8 92 0.0 0.0 0.00 0.00 0.00 74 1018.0
20260503041323 8 92 0.0 0.0 0.00 0.00 0.00 75 1018.1
20260503040821 8 92 0.0 0.0 0.00 0.00 0.00 75 1017.9
20260503040318 8 92 0.0 0.0 0.00 0.00 0.00 74 1018.0
20260503035815 8 92 0.0 0.0 0.00 0.00 0.00 74 1018.0
20260503035312 8 92 0.0 0.0 0.00 0.00 0.00 74 1018.0
20260503034809 9 93 0.0 0.0 0.00 0.00 0.00 73 1018.1
20260503034306 9 92 0.0 0.0 0.00 0.00 0.00 73 1018.0
20260503033803 9 92 0.0 0.0 0.00 0.00 0.00 73 1017.9
20260503033301 9 92 0.0 0.0 0.00 0.00 0.00 73 1017.9
20260503032759 9 92 0.0 0.0 0.00 0.00 0.00 71 1017.9
20260503032258 9 92 0.0 0.0 0.00 0.00 0.00 71 1017.8
20260503031754 9 92 0.0 0.0 0.00 0.00 0.00 72 1018.0
20260503031252 9 92 0.0 0.0 0.00 0.00 0.00 70 1018.0
20260503030748 9 92 0.0 0.0 0.00 0.00 0.00 70 1017.9
20260503030245 10 92 0.0 0.0 0.00 0.00 0.00 68 1017.9
20260503025742 10 92 0.0 0.0 0.00 0.00 0.00 68 1017.7
20260503025239 10 92 0.0 0.0 0.00 0.00 0.00 68 1017.6
20260503024736 10 92 0.0 0.0 0.00 0.00 0.00 67 1017.6
20260503024233 10 92 0.0 1.6 0.00 0.00 0.00 64 1017.6
20260503023730 10 92 1.6 1.6 0.00 0.00 0.00 65 1017.3
20260503023227 10 92 0.0 0.0 0.00 0.00 0.00 68 1017.5
20260503022722 10 92 0.0 0.0 0.00 0.00 0.00 68 1017.4
20260503022217 10 92 0.0 0.0 0.00 0.00 0.00 67 1017.6
20260503021714 10 92 0.0 0.0 0.00 0.00 0.00 68 1017.6
20260503021210 10 92 0.0 0.0 0.00 0.00 0.00 69 1017.6
20260503020708 10 92 0.0 0.0 0.00 0.00 0.00 67 1017.5
20260503020205 10 92 0.0 0.0 0.00 0.00 0.00 67 1017.2
20260503015702 10 92 0.0 0.0 0.00 0.00 0.00 67 1017.2
20260503015159 10 92 0.0 0.0 0.00 0.00 0.00 65 1017.1
20260503014654 10 92 0.0 0.0 0.00 0.00 0.00 64 1017.0
20260503014153 10 92 0.0 0.0 0.00 0.00 0.00 64 1016.8
20260503013650 11 92 0.0 0.0 0.00 0.00 0.00 61 1016.9
20260503013147 11 92 0.0 0.0 0.00 0.00 0.00 63 1016.9
20260503012644 11 92 0.0 0.0 0.00 0.00 0.00 62 1016.9
20260503012141 11 92 0.0 0.0 0.00 0.00 0.00 59 1016.7
20260503011638 11 92 0.0 1.6 0.00 0.00 0.00 57 1016.5
20260503011135 11 92 0.0 1.6 0.00 0.00 0.00 55 1016.5
20260503010631 11 92 0.0 1.6 0.00 0.00 0.00 56 1016.4
20260503010129 12 92 0.0 0.0 0.00 0.00 0.00 59 1016.4
20260503005625 12 92 1.6 1.6 0.00 0.00 0.00 55 1016.4
20260503005123 12 92 0.0 0.0 0.00 0.00 0.00 54 1016.3
20260503004619 12 92 0.0 0.0 0.00 0.00 0.00 55 1016.4
20260503004118 12 92 1.6 1.6 0.00 0.00 0.00 52 1016.2
20260503003614 12 92 0.0 1.6 0.00 0.00 0.00 52 1016.1
20260503003111 12 92 0.0 1.6 0.00 0.00 0.00 52 1016.1
20260503002608 12 92 0.0 1.6 0.00 0.00 0.00 51 1016.1
20260503002104 12 92 0.0 1.6 0.00 0.00 0.00 50 1016.1
20260503001601 13 92 0.0 1.6 0.00 0.00 0.00 50 1015.9
20260503001058 13 92 0.0 1.6 0.00 0.00 0.00 50 1016.1
20260503000555 13 92 1.6 1.6 0.00 0.00 0.00 49 1015.6
20260503000052 13 92 1.6 1.6 0.00 0.00 0.00 47 1015.6
20260502235549 13 92 1.6 1.6 0.00 0.00 0.00 47 1015.5
20260502235047 13 92 1.6 1.6 0.00 0.00 0.00 47 1015.4
20260502234543 13 92 1.6 3.2 0.00 0.00 0.00 46 1015.4
20260502234041 14 92 1.6 3.2 0.00 0.00 0.00 45 1015.2
20260502233540 14 95 1.6 3.2 0.00 0.00 0.00 45 1015.2
20260502233038 14 95 1.6 3.2 0.00 0.00 0.00 44 1015.3
20260502232534 14 96 1.6 1.6 0.00 0.00 0.00 42 1015.2
20260502232031 15 92 1.6 3.2 0.00 0.00 0.00 41 1015.5
20260502231528 15 98 1.6 1.6 0.00 0.00 0.00 42 1015.3
20260502231026 15 89 1.6 3.2 0.00 0.00 0.00 42 1015.2
20260502230524 15 97 1.6 1.6 0.00 0.00 0.00 41 1015.2
20260502230022 15 95 1.6 3.2 0.00 0.00 0.00 41 1015.1
20260502225517 15 74 3.2 8.0 0.00 0.00 0.00 43 1015.3
20260502225015 15 98 1.6 1.6 0.00 0.00 0.00 43 1015.3
20260502224511 15 96 1.6 3.2 0.00 0.00 0.00 43 1015.3
20260502224008 15 98 1.6 4.8 0.00 0.00 0.00 42 1015.2
20260502223506 15 92 3.2 3.2 0.00 0.00 0.00 43 1015.2
20260502223004 15 104 1.6 1.6 0.00 0.00 0.00 42 1015.2
20260502222501 15 101 1.6 3.2 0.00 0.00 0.00 43 1014.9
20260502221956 15 103 1.6 3.2 0.00 0.00 0.00 40 1015.2
20260502221453 15 98 1.6 3.2 0.00 0.00 0.00 40 1015.1
20260502220950 16 82 3.2 4.8 0.00 0.00 0.00 39 1014.8
20260502220445 16 98 1.6 3.2 0.00 0.00 0.00 40 1014.7
20260502215943 16 106 0.0 1.6 0.00 0.00 0.00 38 1014.8
20260502215440 15 84 3.2 3.2 0.00 0.00 0.00 38 1014.7
20260502214937 15 61 4.8 4.8 0.00 0.00 0.00 39 1014.8
20260502214433 15 94 1.6 3.2 0.00 0.00 0.00 38 1014.7
20260502213931 15 83 3.2 3.2 0.00 0.00 0.00 38 1014.8
20260502213427 16 93 1.6 3.2 0.00 0.00 0.00 40 1014.5
20260502212926 16 80 4.8 9.7 0.00 0.00 0.00 37 1014.5
20260502212425 16 90 3.2 4.8 0.00 0.00 0.00 38 1014.6
20260502211921 16 102 1.6 1.6 0.00 0.00 0.00 37 1014.5
20260502211417 16 80 3.2 4.8 0.00 0.00 0.00 38 1014.3
20260502210915 16 97 1.6 3.2 0.00 0.00 0.00 38 1014.4
20260502210412 16 81 4.8 4.8 0.00 0.00 0.00 37 1014.4
20260502205909 16 88 3.2 4.8 0.00 0.00 0.00 38 1014.4
20260502205404 16 77 3.2 3.2 0.00 0.00 0.00 40 1014.4
20260502204902 16 79 3.2 8.0 0.00 0.00 0.00 38 1014.5
20260502204359 16 100 1.6 3.2 0.00 0.00 0.00 38 1014.4
20260502203856 16 88 3.2 4.8 0.00 0.00 0.00 37 1014.5
20260502203354 16 80 4.8 4.8 0.00 0.00 0.00 36 1014.4
20260502202849 16 88 3.2 4.8 0.00 0.00 0.00 40 1014.4
20260502202347 16 104 1.6 3.2 0.00 0.00 0.00 37 1014.4
20260502201845 16 99 3.2 4.8 0.00 0.00 0.00 34 1014.3
20260502201341 16 102 1.6 3.2 0.00 0.00 0.00 35 1014.4
20260502200837 17 81 3.2 3.2 0.00 0.00 0.00 38 1014.3
20260502200333 17 97 1.6 3.2 0.00 0.00 0.00 35 1014.3
20260502195831 17 71 3.2 3.2 0.00 0.00 0.00 35 1014.6
20260502195327 17 95 3.2 4.8 0.00 0.00 0.00 38 1014.6
20260502194824 18 97 1.6 3.2 0.00 0.00 0.00 34 1014.6
20260502194321 18 102 1.6 3.2 0.00 0.00 0.00 36 1014.6
20260502193817 17 128 3.2 3.2 0.00 0.00 0.00 35 1014.6
20260502193314 17 104 1.6 3.2 0.00 0.00 0.00 36 1014.6
20260502192809 17 92 1.6 3.2 0.00 0.00 0.00 34 1014.6
20260502192307 17 90 3.2 8.0 0.00 0.00 0.00 32 1014.6
20260502191804 17 86 3.2 8.0 0.00 0.00 0.00 35 1014.5
20260502191302 17 118 0.0 1.6 0.00 0.00 0.00 41 1014.4
20260502190759 16 95 1.6 3.2 0.00 0.00 0.00 37 1014.8
20260502190256 16 80 3.2 3.2 0.00 0.00 0.00 39 1014.8
20260502185751 16 103 0.0 1.6 0.00 0.00 0.00 40 1014.8